COSMOS 1753

Satellite information

Favourite Embed

Satellite Type and Status

PAYLOADIN ORBIT

Key statistics

Satellite COSMOS 1753 at a glance.

Uptime

14390

Days in orbit

Revolutions

≈ 12.5

Per day

Orbit

LEO

Low Earth Orbit

Inclination

74.0

Latest

Satellite identification and parameters

Extended collection of information and parameters for COSMOS 1753.

Object identification

Identified? True

Debris? False

Object name: COSMOS 1753

International designator: 1986-042F

Object number (NORAD): 16763

Object ID (CCSDS): 16763

Country: COMMONWEALTH OF INDEPENDENT STATES (CIS)

Current information (Y/N): Y

RCS size: MEDIUM

Orbital parameters

Period: 115.301 minutes

Inclination: 74.0167 deg

SMA: 7847.233 km

Apoapsis: 1477.436 km

Periapsis: 1460.759 km

RAAN: 309.2502 deg

Eccentricy: 0.0010626

Argument of periapsis: 227.4754 deg

Mean anomaly: 243.9865 deg

Mean motion: 12.48900882 rev/day

Mean motion (dot): -0.00000005 rev/day2

B* drag term: 0.000075466721 1/REarth

Two-line elements (TLE)

Creation date: Oct. 28, 2025, 7:11 p.m.

Reference frame: TEME

Reference center: EARTH

Epoch: Oct. 28, 2025, 11:09 a.m. UTC

TLE line 0: 0 COSMOS 1753

TLE line 1: 1 16763U 86042F 25301.46499389 -.00000005 00000-0 75467-4 0 9995

TLE line 2: 2 16763 74.0167 309.2502 0010626 227.4754 243.9865 12.48900882796154

Live tracking on map

Real-time ground track for satellite COSMOS 1753.

In-orbit conjunctions

A list of the most updated potential collisions computed for object COSMOS 1753.

Target Orbit TCA Probability of collision Miss distance Type
H-1 R/B SSO 2025-07-24 08:14:07 0.001907597 33.0 (m) ROCKET BODY

Associated space launch

Military communications satellites

COSMOS 1753 was lifted into orbit during the mission ‘Kosmos-3M | Strela-1M 305-312’, on board a Kosmos-3M space rocket.

The launch took place on June 6, 1986, 3:57 a.m. from 132/1 (132L).

For more information about the launch, click the button.

Launch to space Kosmos-3M | Strela-1M 305-312
Kosmos-3M | Strela-1M 305-312

Agency: N/A

Status: Launch Successful

Launch date: June 6, 1986, 3:57 a.m. UTC

Rocket: Kosmos-3M

Launch pad: 132/1 (132L)

Location: Plesetsk Cosmodrome, Russian Federation

...

Latest news about this satellite

There are no fresh news available about this satellite. Check back as we update our databases every day.


Newsletter sign-up

Weekly statistics, charts and insights to help you stay on top of the space industry.